Other Public Products
Issued by NWS Grand Forks, ND

Home | Current Version | Previous Version | Text Only | Print | Product List | Glossary Off
Versions: 1 2 3 4 5 6 7 8 9 10 11 12 13 14 15 16 17 18 19 20 21 22 23 24 25 26 27 28 29 30 31 32 33 34 35 36 37 38 39 40 41 42 43 44 45 46 47 48 49 50

000
FPUS83 KFGF 250031
OPUFGF
PRAIRIE TO PINES WEATHER ROUNDUP
NATIONAL WEATHER SERVICE EASTERN NORTH DAKOTA/GRAND FORKS ND
700 PM CDT FRI MAR 24 2017

 **SATELLITE DATA USED TO AUGMENT SKY COVER AT AUTOMATED STATIONS**
 *****  WEATHER ACROSS EASTERN NORTH DAKOTA  *****

CITY           SKY/WX    TMP DP  RH WIND       PRES   REMARKS
GRAND FORKS    MOCLDY    35  29  78 NE7       30.22S
6HR MIN TEMP:  34; 6HR MAX TEMP:  36;

GRAND FORKS AF CLOUDY    32  28  86 NE6       30.23R
GRAND CITY NWS NOT AVBL
BUXTON         NOT AVBL
DEVILS LAKE    CLOUDY    32  26  78 E7        30.20S
6HR MIN TEMP:  32; 6HR MAX TEMP:  33;

FARGO          FAIR      38  32  79 N14       30.19R
6HR MIN TEMP:  36; 6HR MAX TEMP:  40;

WAHPETON ARPT    N/A     37  32  81 N12       30.18R
$$

 *****  WEATHER ACROSS CENTRAL AND WESTERN NORTH DAKOTA  *****

CITY           SKY/WX    TMP DP  RH WIND       PRES   REMARKS
JAMESTOWN      CLOUDY    34  29  82 NE5       30.18S
6HR MIN TEMP:  34; 6HR MAX TEMP:  39;

BISMARCK       FAIR      43  34  70 E14       30.14F
6HR MIN TEMP:  40; 6HR MAX TEMP:  47;

MINOT          FAIR      37  29  72 E16       30.12F
6HR MIN TEMP:  36; 6HR MAX TEMP:  41;

MINOT AFB      FAIR      35  29  80 SE17      30.10F WCI  25
6HR MIN TEMP:  35; 6HR MAX TEMP:  37;

GARRISON         N/A     39  31  72 SE13      30.10F
6HR MIN TEMP:  36; 6HR MAX TEMP:  42;

WILLISTON      FAIR      53  32  44 E16       29.98F
6HR MIN TEMP:  48; 6HR MAX TEMP:  59;

DICKINSON      FAIR      54  33  45 SE18      30.00F
6HR MIN TEMP:  49; 6HR MAX TEMP:  58;

HETTINGER      FAIR      56  30  37 SE15      30.04F
6HR MIN TEMP:  46; 6HR MAX TEMP:  59;

$$

 *****  OTHER OBSERVATIONS NORTHEAST NORTH DAKOTA  *****

CITY           SKY/WX    TMP DP  RH WIND       PRES   REMARKS
WALHALLA       NOT AVBL
LANGDON        CLOUDY    30  27  86 SE8       30.20S WCI  23
CAVALIER         N/A     32  25  74 VRB3      30.23F
GRAFTON        CLOUDY    34  30  86 N7        30.25S
CANDO          NOT AVBL
FORT TOTTEN      N/A     33  25  73 E5        29.95S
ROLLA          CLOUDY    28  27  93 SE10      30.18S WCI  19
RUGBY            N/A     30  27  86 E13       30.17F WCI  20
 ***** THE ABOVE OBSERVATIONS ARE NON NWS ARE NOT QUALITY
        CONTROLLED AND MAY MIS-REPORT RAIN FOR SNOW...
$$

 *****  OTHER OBSERVATIONS SOUTHEAST NORTH DAKOTA *****

CITY           SKY/WX    TMP DP  RH WIND       PRES   REMARKS
COOPERSTOWN    CLOUDY    32  28  86 NE10      30.21R WCI  24
VALLEY CITY    CLOUDY    32  32 100 NE7G14    30.21R
OAKES          NOT AVBL
GWINNER        CLOUDY    36  30  80 MISG      30.19R
SHEYENNE NWR     N/A     35  28  76 NE9       29.95S
BUFFALO        NOT AVBL
WYNDMERE         N/A     37  34  87 N9          N/A
 ***** THE ABOVE OBSERVATIONS ARE NON NWS ARE NOT QUALITY
       CONTROLLED AND MAY MIS-REPORT RAIN FOR SNOW...
$$

  *****  WEATHER ACROSS NORTHERN MINNESOTA  *****

CITY           SKY/WX    TMP DP  RH WIND       PRES   REMARKS
FLAG ISLAND    CLOUDY    34  25  69 NE6       30.22S
WARROAD        CLOUDY    34  27  75 NE3       30.22S
ROSEAU         CLOUDY    36  28  75 E3        30.22R
HALLOCK        CLOUDY    34  30  86 NW3       30.23R
THF RVR FALLS  FAIR     N/A N/A N/A N10       30.21R
HALSTAD          N/A     35  30  83 N10         N/A
FOSSTON        FAIR      39  30  70 N6        30.18S
BAUDETTE       CLOUDY    37  25  61 N10       30.20R
6HR MIN TEMP:  37; 6HR MAX TEMP:  41;

WASKISH        CLOUDY    39  28  65 E3        30.19R
CROOKSTON      FAIR      36  30  80 N7        30.21S
$$
  *****  WEATHER ACROSS CENTRAL AND WEST MINNESOTA  *****

CITY           SKY/WX    TMP DP  RH WIND       PRES   REMARKS
BEMIDJI        CLOUDY    37  29  72 E7        30.17S
PARK RAPIDS    CLOUDY    40  27  59 E7        30.16R
6HR MIN TEMP:  39; 6HR MAX TEMP:  45;

WADENA         MOCLDY    39  30  70 NE9       30.16R
DETROIT LAKES  FAIR      41  32  70 E5        30.17S
MOORHEAD       FAIR      37  32  81 N10       30.20R
FERGUS FALLS   FAIR      43  32  65 N6        30.19S
ELBOW LAKE     FAIR      42  33  72 CALM      30.15S
6HR MIN TEMP:  38; 6HR MAX TEMP:  45;

MORRIS MN      FAIR      41  36  81 E5        30.14S
STAPLES        CLOUDY    39  30  70 NE3       30.17R
WHEATON        FAIR      39  34  81 NW9       30.18S
$$
  *****  WEATHER ELSEWHERE ACROSS MINNESOTA  *****

CITY           SKY/WX    TMP DP  RH WIND       PRES   REMARKS
DULUTH         CLOUDY    35  32  88 E6        30.18R
6HR MIN TEMP:  35; 6HR MAX TEMP:  38;

INTRNTL FALLS  CLOUDY    38  25  59 CALM      30.20R
6HR MIN TEMP:  38; 6HR MAX TEMP:  39;

ELY            CLOUDY    34  30  86 CALM      30.19S
CLOQUET        CLOUDY    36  32  87 NE3       30.18R
BRAINERD       CLOUDY    39  31  72 NE5       30.18R
6HR MIN TEMP:  38; 6HR MAX TEMP:  40;

HIBBING        CLOUDY    35  32  88 NE3       30.18R
6HR MIN TEMP:  35; 6HR MAX TEMP:  37;

ALEXANDRIA     FAIR      40  32  73 E10       30.15R
6HR MIN TEMP:  37; 6HR MAX TEMP:  44;

SAINT CLOUD    CLOUDY    39  33  79 NE9       30.15R
6HR MIN TEMP:  38; 6HR MAX TEMP:  40;

MINNEAPOLIS    CLOUDY    42  34  73 NE12      30.13R
6HR MIN TEMP:  42; 6HR MAX TEMP:  45;

$$

  *****  WEATHER ACROSS SOUTH DAKOTA  *****

CITY           SKY/WX    TMP DP  RH WIND       PRES   REMARKS
SIOUX FALLS    CLOUDY    40  35  83 NE18      30.09R
6HR MIN TEMP:  40; 6HR MAX TEMP:  43;

BROOKINGS      CLOUDY    38  34  85 N13       30.10R
WATERTOWN      FAIR      39  34  82 NE13      30.11S
6HR MIN TEMP:  35; 6HR MAX TEMP:  39;

HURON          FAIR      45  34  65 N14       30.11S
6HR MIN TEMP:  41; 6HR MAX TEMP:  49;

SISSETON         N/A     40  33  76 N14       30.16R
ABERDEEN       FAIR      46  30  53 NE13      30.15F
6HR MIN TEMP:  38; 6HR MAX TEMP:  49;

MITCHELL       FAIR      43  36  76 N13       30.11R
PIERRE         FAIR      53  32  44 E12       30.09S
6HR MIN TEMP:  52; 6HR MAX TEMP:  59;

MOBRIDGE       FAIR      55  31  39 E9        30.08F
RAPID CITY     FAIR      59  30  33 SE12      30.05S
6HR MIN TEMP:  55; 6HR MAX TEMP:  63;

$$

  *****  SOME WEATHER IN NEARBY STATES *****

CITY           SKY/WX    TMP DP  RH WIND       PRES   REMARKS
GLASGOW MT     FAIR      62  29  28 S13       29.84F
6HR MIN TEMP:  50; 6HR MAX TEMP:  65;

GREAT FALLS MT FAIR      62  19  19 S18       29.69F
6HR MIN TEMP:  55; 6HR MAX TEMP:  65;

CHEYENNE WY    FAIR      50  20  30 NE13      30.11S
6HR MIN TEMP:  44; 6HR MAX TEMP:  51;

SCOTTSBLUFF NE FAIR      57  27  31 E10       30.09S
6HR MIN TEMP:  54; 6HR MAX TEMP:  61;

OMAHA NE       LGT RAIN  43  39  86 N20       29.97F FOG
6HR MIN TEMP:  44; 6HR MAX TEMP:  47; 6HR PCP:  0.18;

DES MOINES IA  LGT RAIN  48  45  89 N13       29.97R FOG
6HR MIN TEMP:  48; 6HR MAX TEMP:  51; 6HR PCP:  0.14;

DAVENPORT IA   RAIN      56  54  93 W6        30.01R FOG
6HR MIN TEMP:  57; 6HR MAX TEMP:  78; 6HR PCP:  0.01;

CHICAGO IL     CLOUDY    46  36  68 NE21G29   30.00R
6HR MIN TEMP:  46; 6HR MAX TEMP:  82;

EAU CLAIRE WI  CLOUDY    40  35  83 NE8       30.13R
6HR MIN TEMP:  39; 6HR MAX TEMP:  42; 6HR PCP:  0.01;

LA CROSSE WI   CLOUDY    43  39  86 N8        30.07R
6HR MIN TEMP:  43; 6HR MAX TEMP:  44;

$$

  *****  SOME NATIONAL WEATHER *****

CITY           SKY/WX    TMP DP  RH WIND       PRES   REMARKS
LA GUARDIA NY  MOCLDY    53  37  54 S5        30.11S
6HR MIN TEMP:  48; 6HR MAX TEMP:  58; 6HR PCP: TRACE;


USA.gov is the U.S. government's official web portal to all federal, state and local government web resources and services.